AAL2634 KDFW-KRDU

Flight info

Callsign AAL2634
Flight time 2h 12m
Altitude 35000
Route TRYTN4 LOOSE MEM VXV KPASS ALDAN4
Aircraft A321/M-SADE2E3FGHIJ3J4J5M1RWXYZ/L

Departure

Time 2026-05-05 16:10
Airport Dallas Fort Worth International Airport (KDFW)

Arrival

Time 2026-05-05 18:23
Airport Raleigh-Durham International Airport (KRDU)
Time Latitude Longitude Altitude Speed Heading
2026-05-05 15:44 32.90434 -97.03497 598 ft 0 kts 287°
2026-05-05 15:53 32.90434 -97.03496 597 ft 0 kts 287°
2026-05-05 16:00 32.90433 -97.03486 597 ft 4 kts 332°
2026-05-05 16:01 32.90420 -97.03472 597 ft 4 kts 298°
2026-05-05 16:01 32.90407 -97.03444 597 ft 4 kts 301°
2026-05-05 16:01 32.90393 -97.03417 597 ft 4 kts 313°
2026-05-05 16:01 32.90373 -97.03400 597 ft 4 kts 353°
2026-05-05 16:02 32.90368 -97.03399 597 ft 2 kts 360°
2026-05-05 16:05 32.90378 -97.03399 597 ft 6 kts 360°
2026-05-05 16:05 32.90433 -97.03399 597 ft 9 kts 360°
2026-05-05 16:05 32.90490 -97.03377 597 ft 9 kts 42°
2026-05-05 16:06 32.90544 -97.03326 597 ft 11 kts 30°
2026-05-05 16:06 32.90617 -97.03312 596 ft 11 kts
2026-05-05 16:06 32.90699 -97.03312 597 ft 12 kts
2026-05-05 16:06 32.90784 -97.03312 597 ft 13 kts 360°
2026-05-05 16:07 32.90873 -97.03312 597 ft 13 kts
2026-05-05 16:07 32.90964 -97.03309 597 ft 13 kts
2026-05-05 16:07 32.91056 -97.03276 596 ft 14 kts
2026-05-05 16:07 32.91157 -97.03275 596 ft 15 kts 359°
2026-05-05 16:08 32.91261 -97.03278 597 ft 15 kts 358°
2026-05-05 16:08 32.91367 -97.03275 596 ft 16 kts
2026-05-05 16:08 32.91478 -97.03272 596 ft 16 kts 360°
2026-05-05 16:08 32.91556 -97.03235 594 ft 13 kts 66°
2026-05-05 16:09 32.91558 -97.03100 582 ft 17 kts 90°
2026-05-05 16:09 32.91551 -97.02996 580 ft 9 kts 127°
2026-05-05 16:09 32.91508 -97.02989 581 ft 6 kts 180°
2026-05-05 16:09 32.91456 -97.02991 581 ft 15 kts 182°
2026-05-05 16:10 32.91124 -97.02992 582 ft 80 kts 180°
2026-05-05 16:10 32.90366 -97.02997 579 ft 135 kts 180°
2026-05-05 16:10 32.89276 -97.03000 592 ft 176 kts 180°
2026-05-05 16:10 32.88054 -97.02980 1222 ft 172 kts 181°
2026-05-05 16:11 32.86830 -97.02906 1733 ft 181 kts 182°
2026-05-05 16:11 32.82963 -97.01969 2924 ft 219 kts 163°
2026-05-05 16:12 32.81526 -97.01155 3004 ft 240 kts 164°
2026-05-05 16:12 32.78405 -96.98941 3620 ft 285 kts 136°
2026-05-05 16:13 32.76542 -96.92021 5472 ft 304 kts 88°
2026-05-05 16:13 32.76650 -96.89503 6089 ft 306 kts 87°
2026-05-05 16:13 32.76752 -96.86965 6677 ft 309 kts 88°
2026-05-05 16:14 32.77213 -96.81863 7840 ft 314 kts 73°
2026-05-05 16:14 32.78503 -96.76861 9025 ft 319 kts 72°
2026-05-05 16:15 32.79829 -96.71780 10186 ft 325 kts 71°
2026-05-05 16:15 32.81238 -96.66395 10588 ft 361 kts 71°
2026-05-05 16:16 32.82789 -96.60442 11067 ft 388 kts 71°
2026-05-05 16:16 32.84377 -96.54238 12081 ft 396 kts 71°
2026-05-05 16:17 32.85995 -96.47903 13127 ft 404 kts 70°
2026-05-05 16:17 32.86819 -96.44688 13640 ft 409 kts 70°
2026-05-05 16:18 32.88491 -96.38161 14581 ft 416 kts 70°
2026-05-05 16:18 32.89337 -96.34851 15063 ft 420 kts 70°
2026-05-05 16:18 32.91228 -96.28210 15999 ft 427 kts 66°
2026-05-05 16:19 32.92310 -96.24904 16473 ft 431 kts 65°
2026-05-05 16:19 32.93438 -96.21587 16946 ft 434 kts 65°
2026-05-05 16:19 32.95711 -96.14906 17896 ft 442 kts 65°
2026-05-05 16:20 32.97969 -96.08023 18730 ft 450 kts 65°
2026-05-05 16:20 33.00219 -96.01005 19557 ft 457 kts 65°
2026-05-05 16:21 33.02495 -95.93870 20385 ft 464 kts 65°
2026-05-05 16:22 33.05990 -95.82972 21556 ft 475 kts 64°
2026-05-05 16:22 33.08374 -95.75575 22325 ft 481 kts 64°
2026-05-05 16:23 33.10779 -95.68074 23063 ft 487 kts 64°
2026-05-05 16:23 33.11992 -95.64286 23412 ft 490 kts 64°
2026-05-05 16:23 33.14434 -95.56643 24030 ft 495 kts 64°
2026-05-05 16:24 33.15658 -95.52796 24335 ft 498 kts 64°
2026-05-05 16:24 33.16885 -95.48925 24633 ft 500 kts 64°
2026-05-05 16:24 33.19361 -95.41133 25227 ft 504 kts 64°
2026-05-05 16:25 33.20607 -95.37214 25520 ft 506 kts 64°
2026-05-05 16:25 33.23114 -95.29321 26098 ft 510 kts 64°
2026-05-05 16:25 33.24369 -95.25346 26391 ft 513 kts 64°
2026-05-05 16:26 33.26880 -95.17339 26963 ft 517 kts 64°
2026-05-05 16:26 33.29412 -95.09262 27520 ft 521 kts 64°
2026-05-05 16:27 33.30686 -95.05206 27788 ft 523 kts 64°
2026-05-05 16:27 33.31969 -95.01128 28051 ft 525 kts 64°
2026-05-05 16:27 33.33253 -94.97035 28310 ft 527 kts 63°
2026-05-05 16:27 33.34540 -94.92926 28574 ft 529 kts 64°
2026-05-05 16:28 33.35828 -94.88799 28826 ft 531 kts 64°
2026-05-05 16:28 33.37116 -94.84657 29077 ft 533 kts 64°
2026-05-05 16:28 33.38411 -94.80492 29345 ft 535 kts 63°
2026-05-05 16:28 33.39709 -94.76317 29615 ft 536 kts 63°
2026-05-05 16:29 33.41007 -94.72134 29969 ft 536 kts 63°
2026-05-05 16:29 33.42300 -94.67955 30257 ft 535 kts 63°
2026-05-05 16:29 33.43594 -94.63774 30548 ft 536 kts 63°
2026-05-05 16:29 33.44886 -94.59596 30827 ft 536 kts 63°
2026-05-05 16:30 33.46180 -94.55408 31094 ft 536 kts 63°
2026-05-05 16:30 33.47471 -94.51221 31368 ft 536 kts 63°
2026-05-05 16:30 33.48763 -94.47028 31638 ft 536 kts 63°
2026-05-05 16:30 33.50053 -94.42837 31922 ft 537 kts 62°
2026-05-05 16:31 33.51342 -94.38640 32187 ft 537 kts 62°
2026-05-05 16:31 33.52628 -94.34436 32450 ft 537 kts 62°
2026-05-05 16:31 33.53912 -94.30233 32720 ft 537 kts 62°
2026-05-05 16:31 33.55196 -94.26029 32989 ft 537 kts 62°
2026-05-05 16:32 33.56476 -94.21818 33252 ft 538 kts 62°
2026-05-05 16:32 33.57747 -94.17596 33504 ft 538 kts 62°
2026-05-05 16:32 33.59008 -94.13369 33761 ft 539 kts 62°
2026-05-05 16:32 33.60263 -94.09135 33992 ft 538 kts 62°
2026-05-05 16:33 33.61513 -94.04904 34232 ft 538 kts 62°
2026-05-05 16:33 33.62759 -94.00675 34466 ft 537 kts 62°
2026-05-05 16:33 33.64001 -93.96451 34707 ft 537 kts 61°
2026-05-05 16:33 33.65244 -93.92235 34807 ft 536 kts 61°
2026-05-05 16:34 33.67725 -93.83821 34820 ft 534 kts 61°
2026-05-05 16:34 33.70205 -93.75435 34817 ft 532 kts 61°
2026-05-05 16:35 33.72667 -93.67053 34820 ft 532 kts 61°
2026-05-05 16:35 33.75120 -93.58668 34820 ft 531 kts 61°
2026-05-05 16:36 33.77567 -93.50287 34836 ft 531 kts 61°
2026-05-05 16:36 33.80007 -93.41900 34849 ft 531 kts 61°
2026-05-05 16:37 33.82447 -93.33512 34853 ft 531 kts 61°
2026-05-05 16:37 33.84465 -93.26538 34868 ft 531 kts 61°
2026-05-05 16:38 33.86879 -93.18153 34874 ft 530 kts 61°
2026-05-05 16:38 33.89292 -93.09767 34880 ft 529 kts 60°
2026-05-05 16:39 33.92201 -93.01778 34885 ft 520 kts 55°
2026-05-05 16:39 33.95198 -92.93854 34891 ft 519 kts 55°
2026-05-05 16:40 33.98153 -92.85979 34887 ft 519 kts 55°
2026-05-05 16:40 34.01123 -92.78062 34881 ft 518 kts 55°
2026-05-05 16:41 34.04087 -92.70144 34875 ft 518 kts 55°
2026-05-05 16:41 34.07043 -92.62237 34877 ft 517 kts 55°
2026-05-05 16:42 34.09983 -92.54324 34877 ft 517 kts 56°
2026-05-05 16:42 34.12919 -92.46417 34887 ft 516 kts 55°
2026-05-05 16:43 34.15857 -92.38521 34887 ft 515 kts 56°
2026-05-05 16:43 34.18773 -92.30626 34898 ft 515 kts 56°
2026-05-05 16:44 34.21685 -92.22730 34906 ft 514 kts 56°
2026-05-05 16:44 34.24587 -92.14848 34911 ft 513 kts 56°
2026-05-05 16:45 34.27484 -92.06964 34911 ft 513 kts 56°
2026-05-05 16:45 34.30366 -91.99085 34930 ft 512 kts 56°
2026-05-05 16:46 34.33242 -91.91209 34911 ft 511 kts 56°
2026-05-05 16:46 34.36125 -91.83282 34912 ft 511 kts 56°
2026-05-05 16:47 34.38963 -91.75463 34906 ft 510 kts 56°
2026-05-05 16:47 34.41820 -91.67602 34922 ft 510 kts 56°
2026-05-05 16:48 34.44667 -91.59733 34922 ft 509 kts 57°
2026-05-05 16:48 34.47503 -91.51870 34931 ft 509 kts 57°
2026-05-05 16:49 34.50331 -91.44008 34927 ft 509 kts 57°
2026-05-05 16:49 34.53154 -91.36152 34930 ft 508 kts 57°
2026-05-05 16:50 34.55969 -91.28301 34925 ft 507 kts 57°
2026-05-05 16:50 34.58769 -91.20438 34929 ft 507 kts 58°
2026-05-05 16:51 34.61562 -91.12594 34932 ft 506 kts 58°
2026-05-05 16:51 34.64351 -91.04759 34933 ft 505 kts 58°
2026-05-05 16:52 34.67132 -90.96926 34936 ft 504 kts 59°
2026-05-05 16:52 34.69899 -90.89109 34943 ft 503 kts 59°
2026-05-05 16:53 34.72657 -90.81293 34930 ft 502 kts 59°
2026-05-05 16:53 34.75396 -90.73488 34945 ft 501 kts 59°
2026-05-05 16:54 34.78128 -90.65699 34941 ft 500 kts 60°
2026-05-05 16:54 34.80854 -90.57924 34947 ft 499 kts 60°
2026-05-05 16:55 34.83573 -90.50156 34943 ft 498 kts 60°
2026-05-05 16:55 34.86279 -90.42397 34948 ft 497 kts 60°
2026-05-05 16:56 34.88979 -90.34651 34940 ft 496 kts 61°
2026-05-05 16:56 34.91657 -90.26910 34932 ft 496 kts 61°
2026-05-05 16:57 34.94313 -90.19231 34926 ft 494 kts 61°
2026-05-05 16:57 34.96979 -90.11515 34944 ft 494 kts 62°
2026-05-05 16:58 34.99633 -90.03801 34941 ft 493 kts 62°
2026-05-05 16:58 35.01943 -89.95910 34946 ft 499 kts 73°
2026-05-05 16:59 35.03368 -89.87623 34946 ft 499 kts 74°
2026-05-05 16:59 35.04780 -89.79345 34966 ft 498 kts 74°
2026-05-05 17:00 35.06192 -89.71073 34957 ft 497 kts 74°
2026-05-05 17:00 35.07599 -89.62812 34921 ft 496 kts 74°
2026-05-05 17:01 35.08999 -89.54586 34923 ft 495 kts 74°
2026-05-05 17:01 35.10391 -89.46366 34934 ft 494 kts 75°
2026-05-05 17:02 35.11772 -89.38137 34934 ft 494 kts 75°
2026-05-05 17:02 35.13144 -89.29910 34930 ft 495 kts 75°
2026-05-05 17:03 35.14516 -89.21674 34937 ft 495 kts 75°
2026-05-05 17:03 35.15886 -89.13425 34940 ft 495 kts 75°
2026-05-05 17:04 35.17242 -89.05175 34943 ft 495 kts 75°
2026-05-05 17:04 35.18596 -88.96925 34951 ft 495 kts 75°
2026-05-05 17:05 35.19948 -88.88674 34965 ft 495 kts 75°
2026-05-05 17:05 35.21295 -88.80426 34963 ft 495 kts 75°
2026-05-05 17:06 35.22637 -88.72170 34977 ft 495 kts 75°
2026-05-05 17:06 35.23959 -88.63963 34980 ft 495 kts 76°
2026-05-05 17:07 35.25290 -88.55693 34991 ft 496 kts 76°
2026-05-05 17:07 35.26612 -88.47416 34987 ft 496 kts 76°
2026-05-05 17:08 35.27930 -88.39137 34987 ft 496 kts 76°
2026-05-05 17:08 35.29243 -88.30843 34969 ft 497 kts 76°
2026-05-05 17:09 35.30552 -88.22535 34968 ft 497 kts 76°
2026-05-05 17:09 35.31858 -88.14234 34959 ft 497 kts 76°
2026-05-05 17:10 35.33158 -88.05916 34963 ft 497 kts 76°
2026-05-05 17:10 35.34455 -87.97597 34955 ft 497 kts 76°
2026-05-05 17:11 35.35741 -87.89271 34958 ft 498 kts 76°
2026-05-05 17:11 35.37022 -87.80926 34958 ft 499 kts 76°
2026-05-05 17:12 35.38306 -87.72571 34963 ft 499 kts 76°
2026-05-05 17:12 35.39581 -87.64212 34964 ft 499 kts 76°
2026-05-05 17:13 35.40853 -87.55848 34971 ft 500 kts 76°
2026-05-05 17:13 35.42122 -87.47473 34977 ft 500 kts 76°
2026-05-05 17:14 35.43383 -87.39091 34990 ft 500 kts 76°
2026-05-05 17:14 35.44637 -87.30708 34994 ft 500 kts 76°
2026-05-05 17:15 35.45885 -87.22320 35001 ft 500 kts 76°
2026-05-05 17:15 35.47131 -87.13930 35010 ft 500 kts 76°
2026-05-05 17:16 35.48368 -87.05543 35004 ft 500 kts 77°
2026-05-05 17:16 35.49593 -86.97152 35025 ft 499 kts 76°
2026-05-05 17:17 35.50820 -86.88763 35035 ft 499 kts 77°
2026-05-05 17:17 35.52033 -86.80366 35025 ft 500 kts 76°
2026-05-05 17:18 35.53247 -86.71970 35029 ft 500 kts 76°
2026-05-05 17:18 35.54463 -86.63576 35016 ft 500 kts 77°
2026-05-05 17:19 35.55662 -86.55168 35017 ft 500 kts 77°
2026-05-05 17:19 35.56859 -86.46760 35011 ft 500 kts 77°
2026-05-05 17:20 35.58047 -86.38342 35015 ft 500 kts 77°
2026-05-05 17:20 35.59236 -86.29923 35011 ft 500 kts 77°
2026-05-05 17:21 35.60421 -86.21500 35016 ft 501 kts 77°
2026-05-05 17:22 35.61987 -86.10263 35031 ft 503 kts 73°
2026-05-05 17:22 35.63179 -86.01671 35026 ft 516 kts 73°
2026-05-05 17:23 35.64383 -85.92936 35028 ft 520 kts 74°
2026-05-05 17:23 35.65573 -85.84154 35026 ft 521 kts 74°
2026-05-05 17:24 35.66754 -85.75428 35027 ft 521 kts 74°
2026-05-05 17:24 35.68147 -85.65166 35006 ft 521 kts 74°
2026-05-05 17:25 35.69136 -85.57859 35005 ft 521 kts 74°
2026-05-05 17:25 35.70316 -85.49054 35019 ft 522 kts 74°
2026-05-05 17:26 35.71487 -85.40250 35019 ft 521 kts 74°
2026-05-05 17:26 35.72649 -85.31449 35040 ft 521 kts 74°
2026-05-05 17:27 35.73797 -85.22644 35053 ft 521 kts 74°
2026-05-05 17:27 35.74947 -85.13839 35066 ft 521 kts 74°
2026-05-05 17:28 35.76095 -85.05041 35067 ft 520 kts 75°
2026-05-05 17:28 35.77234 -84.96244 35065 ft 520 kts 74°
2026-05-05 17:29 35.78366 -84.87446 35055 ft 520 kts 74°
2026-05-05 17:29 35.79478 -84.78644 35079 ft 520 kts 74°
2026-05-05 17:30 35.80591 -84.69832 35083 ft 520 kts 74°
2026-05-05 17:30 35.81712 -84.61033 35074 ft 520 kts 74°
2026-05-05 17:31 35.82820 -84.52229 35077 ft 520 kts 74°
2026-05-05 17:31 35.83913 -84.43426 35055 ft 520 kts 74°
2026-05-05 17:32 35.85000 -84.34616 35039 ft 520 kts 74°
2026-05-05 17:32 35.86091 -84.25809 35045 ft 520 kts 74°
2026-05-05 17:33 35.87176 -84.17003 35057 ft 520 kts 75°
2026-05-05 17:33 35.88239 -84.08185 35064 ft 520 kts 75°
2026-05-05 17:34 35.89298 -83.99372 35067 ft 520 kts 74°
2026-05-05 17:34 35.90501 -83.90612 35055 ft 513 kts 66°
2026-05-05 17:34 35.91609 -83.86486 35056 ft 502 kts 58°
2026-05-05 17:35 35.93046 -83.82583 35056 ft 498 kts 56°
2026-05-05 17:35 35.95950 -83.74817 35052 ft 499 kts 56°
2026-05-05 17:36 35.98840 -83.67026 35042 ft 500 kts 56°
2026-05-05 17:36 36.01733 -83.59199 35048 ft 500 kts 56°
2026-05-05 17:37 36.04594 -83.51428 35063 ft 500 kts 56°
2026-05-05 17:37 36.07472 -83.43594 35084 ft 501 kts 56°
2026-05-05 17:38 36.10353 -83.35759 35093 ft 500 kts 56°
2026-05-05 17:38 36.13231 -83.27918 35094 ft 501 kts 56°
2026-05-05 17:39 36.16095 -83.20066 35082 ft 501 kts 56°
2026-05-05 17:39 36.18958 -83.12216 35063 ft 500 kts 56°
2026-05-05 17:40 36.21813 -83.04360 35062 ft 500 kts 56°
2026-05-05 17:40 36.24661 -82.96510 35078 ft 499 kts 56°
2026-05-05 17:41 36.27502 -82.88659 35087 ft 499 kts 56°
2026-05-05 17:41 36.30325 -82.80803 35086 ft 499 kts 56°
2026-05-05 17:42 36.33145 -82.72953 35076 ft 498 kts 57°
2026-05-05 17:42 36.35963 -82.65113 35061 ft 497 kts 56°
2026-05-05 17:43 36.38777 -82.57282 35073 ft 497 kts 57°
2026-05-05 17:43 36.41579 -82.49443 35089 ft 496 kts 57°
2026-05-05 17:44 36.44360 -82.41599 35084 ft 496 kts 57°
2026-05-05 17:44 36.47142 -82.33760 35089 ft 496 kts 57°
2026-05-05 17:45 36.49919 -82.25926 35079 ft 495 kts 57°
2026-05-05 17:45 36.52695 -82.18084 35063 ft 495 kts 57°
2026-05-05 17:46 36.55445 -82.10298 35074 ft 495 kts 57°
2026-05-05 17:46 36.58201 -82.02458 35083 ft 495 kts 57°
2026-05-05 17:47 36.60956 -81.94611 35083 ft 495 kts 57°
2026-05-05 17:47 36.63705 -81.86755 35076 ft 495 kts 57°
2026-05-05 17:48 36.66011 -81.78598 35060 ft 504 kts 65°
2026-05-05 17:48 36.67962 -81.70207 35045 ft 504 kts 65°
2026-05-05 17:49 36.69918 -81.61811 35045 ft 504 kts 65°
2026-05-05 17:49 36.71867 -81.53416 35064 ft 504 kts 65°
2026-05-05 17:50 36.73813 -81.45018 35084 ft 504 kts 65°
2026-05-05 17:50 36.75760 -81.36617 35089 ft 504 kts 65°
2026-05-05 17:51 36.77692 -81.28214 35096 ft 504 kts 65°
2026-05-05 17:51 36.79609 -81.19795 35089 ft 504 kts 65°
2026-05-05 17:52 36.81524 -81.11378 35070 ft 504 kts 65°
2026-05-05 17:52 36.83436 -81.02962 35075 ft 504 kts 65°
2026-05-05 17:53 36.85343 -80.94548 35083 ft 504 kts 66°
2026-05-05 17:53 36.87240 -80.86132 35083 ft 504 kts 66°
2026-05-05 17:54 36.89136 -80.77708 35084 ft 504 kts 66°
2026-05-05 17:54 36.91020 -80.69288 35067 ft 503 kts 66°
2026-05-05 17:55 36.92898 -80.60861 35051 ft 503 kts 66°
2026-05-05 17:55 36.94773 -80.52430 34588 ft 506 kts 66°
2026-05-05 17:55 36.95719 -80.48181 33996 ft 507 kts 66°
2026-05-05 17:56 36.96649 -80.43927 33444 ft 506 kts 68°
2026-05-05 17:56 36.97550 -80.39689 32946 ft 503 kts 69°
2026-05-05 17:56 36.98434 -80.35468 32434 ft 500 kts 69°
2026-05-05 17:56 36.99309 -80.31273 31912 ft 497 kts 70°
2026-05-05 17:57 37.00182 -80.27102 31493 ft 492 kts 71°
2026-05-05 17:57 37.01046 -80.22982 30984 ft 489 kts 71°
2026-05-05 17:57 37.01906 -80.18903 30685 ft 481 kts 72°
2026-05-05 17:57 37.02750 -80.14892 30037 ft 473 kts 72°
2026-05-05 17:58 37.03514 -80.10930 29402 ft 464 kts 79°
2026-05-05 17:58 37.03789 -80.06968 28997 ft 451 kts 89°
2026-05-05 17:58 37.03548 -80.03093 28564 ft 445 kts 99°
2026-05-05 17:58 37.02809 -79.99360 28146 ft 440 kts 110°
2026-05-05 17:59 37.01645 -79.95843 27730 ft 435 kts 115°
2026-05-05 17:59 37.00411 -79.92407 27324 ft 431 kts 115°
2026-05-05 17:59 36.99208 -79.89045 26931 ft 427 kts 115°
2026-05-05 17:59 36.98004 -79.85665 26537 ft 424 kts 115°
2026-05-05 18:00 36.96823 -79.82357 26148 ft 421 kts 115°
2026-05-05 18:00 36.95633 -79.79030 25777 ft 418 kts 115°
2026-05-05 18:00 36.94433 -79.75678 25365 ft 416 kts 115°
2026-05-05 18:00 36.93271 -79.72433 24989 ft 413 kts 115°
2026-05-05 18:01 36.92100 -79.69164 24595 ft 412 kts 115°
2026-05-05 18:01 36.90930 -79.65904 24188 ft 410 kts 116°
2026-05-05 18:01 36.89764 -79.62660 23787 ft 409 kts 116°
2026-05-05 18:01 36.88599 -79.59430 23338 ft 407 kts 116°
2026-05-05 18:02 36.87437 -79.56216 22914 ft 404 kts 116°
2026-05-05 18:02 36.86285 -79.53033 22517 ft 401 kts 116°
2026-05-05 18:02 36.85142 -79.49879 22083 ft 397 kts 116°
2026-05-05 18:02 36.84009 -79.46748 21654 ft 394 kts 116°
2026-05-05 18:03 36.82885 -79.43641 21256 ft 391 kts 116°
2026-05-05 18:03 36.81771 -79.40561 20841 ft 388 kts 116°
2026-05-05 18:03 36.80662 -79.37504 20428 ft 385 kts 116°
2026-05-05 18:03 36.79561 -79.34476 20022 ft 382 kts 116°
2026-05-05 18:04 36.78464 -79.31467 19608 ft 380 kts 116°
2026-05-05 18:04 36.77374 -79.28478 19190 ft 378 kts 116°
2026-05-05 18:04 36.76290 -79.25503 18785 ft 376 kts 117°
2026-05-05 18:04 36.75211 -79.22543 18373 ft 374 kts 117°
2026-05-05 18:05 36.74139 -79.19608 17922 ft 371 kts 117°
2026-05-05 18:05 36.73073 -79.16689 17490 ft 368 kts 117°
2026-05-05 18:05 36.72017 -79.13799 17080 ft 365 kts 117°
2026-05-05 18:05 36.70969 -79.10935 16680 ft 361 kts 117°
2026-05-05 18:06 36.69930 -79.08101 16278 ft 358 kts 117°
2026-05-05 18:06 36.69581 -79.07149 16148 ft 357 kts 117°
2026-05-05 18:06 36.67261 -79.03045 15492 ft 343 kts 142°
2026-05-05 18:06 36.65365 -79.01315 15101 ft 334 kts 156°
2026-05-05 18:07 36.63251 -79.00221 14719 ft 325 kts 169°
2026-05-05 18:07 36.61064 -78.99577 14348 ft 322 kts 171°
2026-05-05 18:07 36.58890 -78.98947 13980 ft 320 kts 171°
2026-05-05 18:07 36.56734 -78.98318 13593 ft 317 kts 171°
2026-05-05 18:08 36.54592 -78.97691 13239 ft 314 kts 171°
2026-05-05 18:08 36.52474 -78.97073 12880 ft 311 kts 171°
2026-05-05 18:08 36.51056 -78.96659 12635 ft 309 kts 171°
2026-05-05 18:08 36.48314 -78.95862 12285 ft 300 kts 171°
2026-05-05 18:09 36.46953 -78.95467 12202 ft 293 kts 172°
2026-05-05 18:09 36.44360 -78.94718 11607 ft 286 kts 172°
2026-05-05 18:09 36.43055 -78.94343 11282 ft 283 kts 172°
2026-05-05 18:09 36.41155 -78.93757 10817 ft 282 kts 166°
2026-05-05 18:10 36.39388 -78.92659 10504 ft 288 kts 152°
2026-05-05 18:10 36.37885 -78.90968 10122 ft 291 kts 140°
2026-05-05 18:10 36.36488 -78.89159 9638 ft 290 kts 141°
2026-05-05 18:10 36.35086 -78.87371 9251 ft 289 kts 141°
2026-05-05 18:11 36.33686 -78.85597 8887 ft 288 kts 141°
2026-05-05 18:11 36.32304 -78.83846 8707 ft 280 kts 141°
2026-05-05 18:11 36.30966 -78.82146 8580 ft 271 kts 141°
2026-05-05 18:11 36.29688 -78.80518 8453 ft 256 kts 142°
2026-05-05 18:12 36.28463 -78.78973 8347 ft 249 kts 142°
2026-05-05 18:12 36.27242 -78.77447 8132 ft 249 kts 142°
2026-05-05 18:12 36.26035 -78.75931 7806 ft 246 kts 142°
2026-05-05 18:12 36.24848 -78.74433 7495 ft 242 kts 142°
2026-05-05 18:13 36.23684 -78.72954 7193 ft 238 kts 142°
2026-05-05 18:13 36.22535 -78.71496 6904 ft 234 kts 142°
2026-05-05 18:13 36.21407 -78.70068 6620 ft 230 kts 142°
2026-05-05 18:13 36.20294 -78.68663 6325 ft 227 kts 142°
2026-05-05 18:14 36.19192 -78.67270 6033 ft 225 kts 142°
2026-05-05 18:14 36.18019 -78.66038 5750 ft 220 kts 147°
2026-05-05 18:14 36.16830 -78.64855 5462 ft 218 kts 146°
2026-05-05 18:14 36.15673 -78.63700 5187 ft 208 kts 146°
2026-05-05 18:15 36.14576 -78.62600 4900 ft 199 kts 146°
2026-05-05 18:15 36.13537 -78.61557 4623 ft 190 kts 146°
2026-05-05 18:15 36.12523 -78.60545 4370 ft 183 kts 146°
2026-05-05 18:15 36.11476 -78.59707 4140 ft 174 kts 160°
2026-05-05 18:16 36.10345 -78.59341 4011 ft 160 kts 177°
2026-05-05 18:16 36.09268 -78.59385 3992 ft 151 kts 191°
2026-05-05 18:16 36.08252 -78.59709 4011 ft 153 kts 195°
2026-05-05 18:16 36.07225 -78.60048 4008 ft 151 kts 196°
2026-05-05 18:17 36.06204 -78.60381 4019 ft 152 kts 196°
2026-05-05 18:17 36.05181 -78.60717 4013 ft 152 kts 195°
2026-05-05 18:17 36.04162 -78.61053 4004 ft 152 kts 196°
2026-05-05 18:17 36.03134 -78.61397 4001 ft 153 kts 198°
2026-05-05 18:18 36.02226 -78.62061 3914 ft 153 kts 219°
2026-05-05 18:18 36.01435 -78.62945 3709 ft 154 kts 221°
2026-05-05 18:18 36.00663 -78.63859 3516 ft 153 kts 221°
2026-05-05 18:18 35.99925 -78.64758 3322 ft 146 kts 222°
2026-05-05 18:19 35.99215 -78.65631 3135 ft 143 kts 222°
2026-05-05 18:19 35.98510 -78.66500 2941 ft 143 kts 221°
2026-05-05 18:19 35.97805 -78.67373 2766 ft 144 kts 221°
2026-05-05 18:19 35.97108 -78.68237 2577 ft 143 kts 222°
2026-05-05 18:20 35.96408 -78.69104 2387 ft 143 kts 221°
2026-05-05 18:20 35.95708 -78.69970 2205 ft 144 kts 221°
2026-05-05 18:20 35.95013 -78.70833 2009 ft 144 kts 221°
2026-05-05 18:20 35.94314 -78.71698 1808 ft 142 kts 219°
2026-05-05 18:21 35.93635 -78.72566 1641 ft 140 kts 223°
2026-05-05 18:21 35.92977 -78.73431 1505 ft 140 kts 222°
2026-05-05 18:21 35.92260 -78.74276 1370 ft 141 kts 221°
2026-05-05 18:21 35.91582 -78.75122 1140 ft 142 kts 221°
2026-05-05 18:22 35.90887 -78.75989 945 ft 144 kts 220°
2026-05-05 18:22 35.90168 -78.76843 680 ft 143 kts 219°
2026-05-05 18:22 35.89475 -78.77702 485 ft 140 kts 221°
2026-05-05 18:22 35.88825 -78.78493 411 ft 112 kts 219°
2026-05-05 18:23 35.88394 -78.79017 394 ft 62 kts 227°
2026-05-05 18:23 35.88211 -78.79250 391 ft 15 kts 225°
2026-05-05 18:23 35.88124 -78.79358 392 ft 24 kts 225°
2026-05-05 18:23 35.88002 -78.79475 392 ft 20 kts 192°
2026-05-05 18:24 35.87927 -78.79443 391 ft 0 kts 132°
2026-05-05 18:24 35.87927 -78.79444 391 ft 0 kts 132°
2026-05-05 18:25 35.87925 -78.79440 391 ft 3 kts 132°